Time,TemperatureF,DewpointF,PressureIn,WindDirection,WindDirectionDegrees,WindSpeedMPH,WindSpeedGustMPH,Humidity,HourlyPrecipIn,Conditions,Clouds,dailyrainin,SoftwareType,DateUTC
2013-04-27 00:07:00,69.6,68.0,30.20,East,101,0.0,0.0,93,0.00,,,0.00,weatherlink.com 1.10,2013-04-27 04:07:00,
2013-04-27 00:22:00,69.3,68.0,30.20,East,101,0.0,0.0,94,0.00,,,0.00,weatherlink.com 1.10,2013-04-27 04:22:00,
2013-04-27 00:37:00,68.8,67.0,30.20,East,101,0.0,0.0,93,0.00,,,0.00,weatherlink.com 1.10,2013-04-27 04:37:00,
2013-04-27 00:52:00,68.9,67.0,30.20,East,101,0.0,0.0,94,0.00,,,0.00,weatherlink.com 1.10,2013-04-27 04:52:00,
2013-04-27 01:07:00,68.6,67.0,30.20,ESE,102,0.0,0.0,94,0.00,,,0.00,weatherlink.com 1.10,2013-04-27 05:07:00,
2013-04-27 01:22:00,68.3,67.0,30.19,East,101,0.0,0.0,94,0.00,,,0.00,weatherlink.com 1.10,2013-04-27 05:22:00,
2013-04-27 01:37:00,69.8,68.0,30.18,SSW,200,1.0,4.0,93,0.00,,,0.00,weatherlink.com 1.10,2013-04-27 05:37:00,
2013-04-27 01:52:00,71.2,67.0,30.18,ESE,110,0.0,3.0,87,0.00,,,0.00,weatherlink.com 1.10,2013-04-27 05:52:00,
2013-04-27 02:07:00,71.6,67.0,30.17,East,95,0.0,2.0,85,0.00,,,0.00,weatherlink.com 1.10,2013-04-27 06:07:00,
2013-04-27 02:22:00,71.2,67.0,30.16,ESE,113,0.0,1.0,85,0.00,,,0.00,weatherlink.com 1.10,2013-04-27 06:22:00,
2013-04-27 02:37:00,70.8,67.0,30.16,ESE,113,0.0,0.0,86,0.00,,,0.00,weatherlink.com 1.10,2013-04-27 06:37:00,
2013-04-27 02:52:00,69.8,66.0,30.15,ESE,113,0.0,0.0,87,0.00,,,0.00,weatherlink.com 1.10,2013-04-27 06:52:00,
2013-04-27 03:07:00,68.9,65.0,30.15,ESE,113,0.0,0.0,88,0.00,,,0.00,weatherlink.com 1.10,2013-04-27 07:07:00,
2013-04-27 03:22:00,68.1,65.0,30.14,ESE,113,0.0,0.0,90,0.00,,,0.00,weatherlink.com 1.10,2013-04-27 07:22:00,
2013-04-27 03:38:00,67.4,65.0,30.14,ESE,113,0.0,0.0,91,0.00,,,0.00,weatherlink.com 1.10,2013-04-27 07:38:00,
2013-04-27 03:53:00,66.6,64.0,30.14,ESE,113,0.0,0.0,92,0.00,,,0.00,weatherlink.com 1.10,2013-04-27 07:53:00,
2013-04-27 04:08:00,66.0,64.0,30.14,ESE,113,0.0,0.0,93,0.00,,,0.00,weatherlink.com 1.10,2013-04-27 08:08:00,
2013-04-27 04:23:00,65.7,64.0,30.14,ESE,113,0.0,0.0,94,0.00,,,0.00,weatherlink.com 1.10,2013-04-27 08:23:00,
2013-04-27 04:38:00,65.9,64.0,30.14,ESE,113,0.0,0.0,94,0.00,,,0.00,weatherlink.com 1.10,2013-04-27 08:38:00,
2013-04-27 04:53:00,66.2,65.0,30.14,ESE,113,0.0,0.0,94,0.00,,,0.00,weatherlink.com 1.10,2013-04-27 08:53:00,
2013-04-27 05:08:00,66.4,65.0,30.14,ESE,113,0.0,0.0,94,0.00,,,0.00,weatherlink.com 1.10,2013-04-27 09:08:00,
2013-04-27 05:23:00,66.4,65.0,30.14,ESE,113,0.0,0.0,94,0.00,,,0.00,weatherlink.com 1.10,2013-04-27 09:23:00,
2013-04-27 05:38:00,66.2,65.0,30.14,ESE,113,0.0,0.0,94,0.00,,,0.00,weatherlink.com 1.10,2013-04-27 09:38:00,
2013-04-27 05:53:00,66.2,65.0,30.15,ESE,113,0.0,0.0,94,0.00,,,0.00,weatherlink.com 1.10,2013-04-27 09:53:00,
2013-04-27 06:08:00,66.2,65.0,30.14,ESE,113,0.0,0.0,94,0.00,,,0.00,weatherlink.com 1.10,2013-04-27 10:08:00,
2013-04-27 06:23:00,65.8,64.0,30.14,ESE,113,0.0,0.0,94,0.00,,,0.00,weatherlink.com 1.10,2013-04-27 10:23:00,
2013-04-27 06:38:00,65.6,64.0,30.15,ESE,113,0.0,0.0,95,0.00,,,0.00,weatherlink.com 1.10,2013-04-27 10:38:00,
2013-04-27 06:53:00,66.0,65.0,30.15,ESE,113,0.0,0.0,95,0.00,,,0.00,weatherlink.com 1.10,2013-04-27 10:53:00,
2013-04-27 07:08:00,66.3,65.0,30.15,ESE,113,0.0,0.0,95,0.00,,,0.00,weatherlink.com 1.10,2013-04-27 11:08:00,
2013-04-27 07:23:00,66.4,65.0,30.16,ESE,113,0.0,0.0,95,0.00,,,0.00,weatherlink.com 1.10,2013-04-27 11:23:00,
2013-04-27 07:38:00,67.2,66.0,30.16,ESE,113,0.0,0.0,95,0.00,,,0.00,weatherlink.com 1.10,2013-04-27 11:38:00,
2013-04-27 07:53:00,68.6,67.0,30.16,ESE,113,0.0,0.0,95,0.00,,,0.00,weatherlink.com 1.10,2013-04-27 11:53:00,
2013-04-27 08:08:00,70.6,69.0,30.16,ESE,113,0.0,0.0,94,0.00,,,0.00,weatherlink.com 1.10,2013-04-27 12:08:00,
2013-04-27 08:23:00,74.6,72.0,30.16,ESE,114,0.0,0.0,91,0.00,,,0.00,weatherlink.com 1.10,2013-04-27 12:23:00,
2013-04-27 08:38:00,77.7,69.0,30.17,SE,138,5.0,8.0,75,0.00,,,0.00,weatherlink.com 1.10,2013-04-27 12:38:00,
2013-04-27 08:53:00,77.5,68.0,30.16,SW,226,1.0,6.0,72,0.00,,,0.00,weatherlink.com 1.10,2013-04-27 12:53:00,
2013-04-27 09:08:00,77.5,69.0,30.16,ESE,117,1.0,3.0,76,0.00,,,0.00,weatherlink.com 1.10,2013-04-27 13:08:00,
2013-04-27 09:23:00,76.2,68.0,30.17,East,101,1.0,6.0,75,0.00,,,0.00,weatherlink.com 1.10,2013-04-27 13:23:00,
2013-04-27 09:38:00,74.7,69.0,30.17,SE,127,4.0,6.0,81,0.00,,,0.00,weatherlink.com 1.10,2013-04-27 13:38:00,
2013-04-27 09:53:00,73.9,70.0,30.17,East,88,0.0,1.0,86,0.01,,,0.01,weatherlink.com 1.10,2013-04-27 13:53:00,
2013-04-27 10:08:00,73.6,69.0,30.18,ESE,104,2.0,5.0,85,0.01,,,0.01,weatherlink.com 1.10,2013-04-27 14:08:00,
2013-04-27 10:23:00,76.1,70.0,30.17,SSE,148,5.0,6.0,81,0.01,,,0.01,weatherlink.com 1.10,2013-04-27 14:23:00,
2013-04-27 10:38:00,78.5,69.0,30.18,South,175,2.0,14.0,73,0.01,,,0.01,weatherlink.com 1.10,2013-04-27 14:38:00,
2013-04-27 10:53:00,79.0,70.0,30.18,SSE,147,6.0,7.0,73,0.00,,,0.01,weatherlink.com 1.10,2013-04-27 14:53:00,
2013-04-27 11:08:00,79.4,71.0,30.18,WNW,288,3.0,7.0,75,0.00,,,0.01,weatherlink.com 1.10,2013-04-27 15:08:00,
2013-04-27 11:23:00,79.9,68.0,30.19,WSW,245,4.0,8.0,67,0.00,,,0.01,weatherlink.com 1.10,2013-04-27 15:23:00,
2013-04-27 11:38:00,80.0,67.0,30.19,NE,53,6.0,9.0,65,0.00,,,0.01,weatherlink.com 1.10,2013-04-27 15:38:00,
2013-04-27 11:53:00,80.7,66.0,30.18,ESE,111,3.0,7.0,62,0.00,,,0.01,weatherlink.com 1.10,2013-04-27 15:53:00,
2013-04-27 12:08:00,81.3,66.0,30.18,ENE,57,1.0,9.0,61,0.00,,,0.01,weatherlink.com 1.10,2013-04-27 16:08:00,
2013-04-27 12:23:00,81.7,67.0,30.17,East,90,4.0,10.0,61,0.00,,,0.01,weatherlink.com 1.10,2013-04-27 16:23:00,
2013-04-27 12:38:00,81.6,67.0,30.17,ESE,115,3.0,8.0,62,0.00,,,0.01,weatherlink.com 1.10,2013-04-27 16:38:00,
2013-04-27 12:53:00,79.9,68.0,30.16,East,99,5.0,10.0,67,0.00,,,0.01,weatherlink.com 1.10,2013-04-27 16:53:00,
2013-04-27 13:08:00,81.2,70.0,30.16,ENE,63,5.0,8.0,68,0.00,,,0.01,weatherlink.com 1.10,2013-04-27 17:08:00,
2013-04-27 13:23:00,80.0,67.0,30.16,East,98,6.0,10.0,65,0.00,,,0.01,weatherlink.com 1.10,2013-04-27 17:23:00,
2013-04-27 13:38:00,79.4,67.0,30.16,SE,129,4.0,8.0,67,0.00,,,0.01,weatherlink.com 1.10,2013-04-27 17:38:00,
2013-04-27 13:53:00,78.6,67.0,30.16,ESE,113,2.0,10.0,67,0.00,,,0.01,weatherlink.com 1.10,2013-04-27 17:53:00,
2013-04-27 14:08:00,77.9,69.0,30.16,NNW,340,3.0,6.0,75,0.00,,,0.01,weatherlink.com 1.10,2013-04-27 18:08:00,
2013-04-27 14:23:00,75.9,69.0,30.16,NNW,328,3.0,7.0,79,0.00,,,0.01,weatherlink.com 1.10,2013-04-27 18:23:00,
2013-04-27 14:38:00,75.5,69.0,30.15,NW,326,1.0,5.0,80,0.00,,,0.01,weatherlink.com 1.10,2013-04-27 18:38:00,
2013-04-27 14:53:00,76.4,70.0,30.14,ESE,110,2.0,4.0,81,0.00,,,0.01,weatherlink.com 1.10,2013-04-27 18:53:00,
2013-04-27 15:08:00,78.9,71.0,30.13,WNW,287,0.0,5.0,76,0.00,,,0.01,weatherlink.com 1.10,2013-04-27 19:08:00,
2013-04-27 15:24:00,80.4,69.0,30.13,SE,134,3.0,8.0,68,0.00,,,0.01,weatherlink.com 1.10,2013-04-27 19:24:00,
2013-04-27 15:39:00,79.4,69.0,30.12,SE,141,2.0,9.0,70,0.00,,,0.01,weatherlink.com 1.10,2013-04-27 19:39:00,
2013-04-27 15:54:00,77.7,70.0,30.12,SSE,150,1.0,10.0,77,0.00,,,0.01,weatherlink.com 1.10,2013-04-27 19:54:00,
2013-04-27 16:09:00,74.2,70.0,30.12,South,173,2.0,4.0,86,0.01,,,0.02,weatherlink.com 1.10,2013-04-27 20:09:00,
2013-04-27 16:24:00,73.1,69.0,30.12,East,92,0.0,3.0,88,0.02,,,0.03,weatherlink.com 1.10,2013-04-27 20:24:00,
2013-04-27 16:39:00,73.2,70.0,30.12,WNW,292,0.0,2.0,89,0.02,,,0.03,weatherlink.com 1.10,2013-04-27 20:39:00,
2013-04-27 16:54:00,73.5,70.0,30.11,NNW,328,1.0,2.0,89,0.02,,,0.03,weatherlink.com 1.10,2013-04-27 20:54:00,
2013-04-27 17:09:00,73.7,70.0,30.11,NNW,330,0.0,8.0,87,0.00,,,0.03,weatherlink.com 1.10,2013-04-27 21:09:00,
2013-04-27 17:24:00,73.8,70.0,30.11,East,84,1.0,7.0,88,0.00,,,0.03,weatherlink.com 1.10,2013-04-27 21:24:00,
2013-04-27 17:39:00,73.9,70.0,30.11,NW,326,0.0,4.0,87,0.00,,,0.03,weatherlink.com 1.10,2013-04-27 21:39:00,
2013-04-27 17:54:00,74.6,70.0,30.10,East,79,1.0,4.0,85,0.00,,,0.03,weatherlink.com 1.10,2013-04-27 21:54:00,
2013-04-27 18:09:00,74.8,68.0,30.10,SE,146,3.0,5.0,79,0.00,,,0.03,weatherlink.com 1.10,2013-04-27 22:09:00,
2013-04-27 18:24:00,75.1,67.0,30.11,SE,143,2.0,7.0,76,0.00,,,0.03,weatherlink.com 1.10,2013-04-27 22:24:00,
2013-04-27 18:39:00,75.2,66.0,30.11,ESE,122,2.0,8.0,74,0.00,,,0.03,weatherlink.com 1.10,2013-04-27 22:39:00,
2013-04-27 18:54:00,74.8,66.0,30.10,SE,126,0.0,7.0,75,0.00,,,0.03,weatherlink.com 1.10,2013-04-27 22:54:00,
2013-04-27 19:09:00,74.4,66.0,30.10,SE,135,1.0,5.0,76,0.00,,,0.03,weatherlink.com 1.10,2013-04-27 23:09:00,
2013-04-27 19:24:00,74.4,67.0,30.10,SE,127,5.0,7.0,77,0.00,,,0.03,weatherlink.com 1.10,2013-04-27 23:24:00,
2013-04-27 19:39:00,74.3,66.0,30.10,East,96,5.0,6.0,76,0.00,,,0.03,weatherlink.com 1.10,2013-04-27 23:39:00,
2013-04-27 19:54:00,74.3,66.0,30.10,SSE,148,2.0,7.0,75,0.00,,,0.03,weatherlink.com 1.10,2013-04-27 23:54:00,
2013-04-27 20:09:00,74.1,66.0,30.11,ESE,122,1.0,5.0,76,0.00,,,0.03,weatherlink.com 1.10,2013-04-28 00:09:00,
2013-04-27 20:24:00,73.7,66.0,30.11,ESE,113,1.0,5.0,77,0.00,,,0.03,weatherlink.com 1.10,2013-04-28 00:24:00,
2013-04-27 20:39:00,73.5,66.0,30.11,ESE,113,2.0,3.0,77,0.00,,,0.03,weatherlink.com 1.10,2013-04-28 00:39:00,
2013-04-27 20:54:00,73.3,66.0,30.11,ESE,115,1.0,3.0,77,0.00,,,0.03,weatherlink.com 1.10,2013-04-28 00:54:00,
2013-04-27 21:09:00,73.2,66.0,30.11,East,101,2.0,5.0,77,0.00,,,0.03,weatherlink.com 1.10,2013-04-28 01:09:00,
2013-04-27 21:24:00,73.0,65.0,30.12,ESE,117,4.0,4.0,77,0.00,,,0.03,weatherlink.com 1.10,2013-04-28 01:24:00,
2013-04-27 21:39:00,73.3,65.0,30.12,SE,130,1.0,6.0,76,0.00,,,0.03,weatherlink.com 1.10,2013-04-28 01:39:00,
2013-04-27 21:54:00,73.5,66.0,30.12,SE,134,1.0,7.0,76,0.00,,,0.03,weatherlink.com 1.10,2013-04-28 01:54:00,
2013-04-27 22:09:00,73.4,65.0,30.13,SE,146,1.0,5.0,75,0.00,,,0.03,weatherlink.com 1.10,2013-04-28 02:09:00,
2013-04-27 22:24:00,72.9,65.0,30.13,East,97,1.0,5.0,76,0.00,,,0.03,weatherlink.com 1.10,2013-04-28 02:24:00,
2013-04-27 22:39:00,72.3,65.0,30.13,ESE,103,1.0,3.0,77,0.00,,,0.03,weatherlink.com 1.10,2013-04-28 02:39:00,
2013-04-27 22:54:00,71.8,65.0,30.13,ESE,120,0.0,4.0,78,0.00,,,0.03,weatherlink.com 1.10,2013-04-28 02:54:00,
2013-04-27 23:09:00,71.6,65.0,30.13,SE,131,1.0,3.0,79,0.00,,,0.03,weatherlink.com 1.10,2013-04-28 03:09:00,
2013-04-27 23:24:00,71.5,65.0,30.13,ESE,117,0.0,2.0,79,0.00,,,0.03,weatherlink.com 1.10,2013-04-28 03:24:00,
2013-04-27 23:39:00,71.3,65.0,30.12,SE,130,1.0,2.0,80,0.00,,,0.03,weatherlink.com 1.10,2013-04-28 03:39:00,
2013-04-27 23:55:00,71.5,65.0,30.12,ESE,113,2.0,3.0,79,0.00,,,0.03,weatherlink.com 1.10,2013-04-28 03:55:00,